sat.trackr.live / text

‹ back to catalog

2025-313AS

NORAD 67288 · 2025-313AS

PAYLOAD ACTIVE UNKNOWN

§ Identity

Operator
Country
TBD
Launch date
2025-12-28
Launch site
VOSTO
Launch vehicle
Mass (kg)
RCS (m²)

External: N2YO · Heavens-Above · Gunter

§ Orbital elements

Epoch: 2026-09-20T10:26:55.950720Z

Period
94.49 min
Inclination
97.3847°
Eccentricity
0.0011659
Mean motion
15.23931746 rev/d
Perigee alt
486.0 km
Apogee alt
502.0 km
Semi-major
6,872.1 km
B*
1.3692e-4
RAAN
336.7558°
Arg perigee
22.9820°
Mean anomaly
337.1937°
Rev number
4,046

§ Raw data

2025-313AS1 67288U 25313AS  26263.43536980  .00003244  00000+0  13692-3 0  99982 67288  97.3847 336.7558 0011659  22.9820 337.1937 15.23931746 40461

JSON: /api/v1/satellites/67288 · /tle

For live sub-satellite position, see the globe view (requires WebGL).

§ Visibility from observer

Set your observer location to see the next 7 days of passes ≥ 10°. The values pass through the URL so the page stays shareable.

No JS? Fill the form by hand. The geolocation button needs JavaScript.